Regional Weather Roundup
Issued by NWS

Home | Current Version | Previous Version | Graphics & Text | Print | Product List | Glossary On
Versions: 1 2 3 4 5 6 7 8 9 10 11 12 13 14 15 16 17 18 19 20 21 22 23 24 25 26 27 28 29 30 31 32 33 34 35 36 37 38 39 40 41 42 43 44 45 46 47 48 49 50
465
ASUS43 KBIS 241102
RWRND

NORTH DAKOTA REGIONAL WEATHER ROUNDUP
NATIONAL WEATHER SERVICE BISMARCK ND
600 AM CDT MON APR 24 2017

NOTE: "FAIR" INDICATES FEW OR NO CLOUDS BELOW 12,000 FEET WITH NO
SIGNIFICANT WEATHER AND/OR OBSTRUCTIONS TO VISIBILITY.


NDZ001>003-009>011-017-241200-
NORTHWEST NORTH DAKOTA

CITY           SKY/WX    TMP DP  RH WIND       PRES   REMARKS
WILLISTON      LGT SNOW  31  29  92 NE7       29.72F FOG
MINOT          CLOUDY    30  27  88 NE9       29.73F
MINOT AFB      CLOUDY    29  26  89 NE10      29.74F WCI  19
$$

NDZ018>021-031>035-040>046-241200-
SOUTHWEST NORTH DAKOTA

CITY           SKY/WX    TMP DP  RH WIND       PRES   REMARKS
BISMARCK       CLOUDY    33  32  96 NE15      29.64F
DICKINSON      FRZ RAIN  28  27  96 E9        29.64S FOG     WCI  19
GARRISON         N/A     29  28  96 E10       29.69F WCI  20
HETTINGER ARPT CLOUDY    31  29  92 N6        29.66R
$$

NDZ004>008-012>016-024-026-027-054-241200-
NORTHEAST NORTH DAKOTA

CITY           SKY/WX    TMP DP  RH WIND       PRES   REMARKS
GRAND FORKS    CLOUDY    36  33  89 E13       29.75F
GRND FRKS AFB  CLOUDY    33  31  91 E12       29.76F
DEVILS LAKE    CLOUDY    31  28  89 E18       29.75F WCI  19
$$

NDZ022-023-025-028>030-036>039-047>053-241200-
SOUTHEAST NORTH DAKOTA

CITY           SKY/WX    TMP DP  RH WIND       PRES   REMARKS
FARGO          CLOUDY    36  30  79 NE7       29.66F
JAMESTOWN      LGT RAIN  33  31  92 NE18      29.62F
$$





USA.gov is the U.S. government's official web portal to all federal, state and local government web resources and services.